sat.trackr.live / text

‹ back to catalog

STARLINK-37219

NORAD 68843 · 2026-094E

PAYLOAD ACTIVE UNKNOWN

§ Identity

Operator
Country
US
Launch date
2026-04-26
Launch site
AFWTR
Launch vehicle
Mass (kg)
RCS (m²)

Purposes: comms

External: N2YO · Heavens-Above · Gunter

§ Orbital elements

Epoch: 2026-05-24T23:41:38.831136Z

Period
91.41 min
Inclination
97.2845°
Eccentricity
0.0000732
Mean motion
15.75309395 rev/d
Perigee alt
343.3 km
Apogee alt
344.2 km
Semi-major
6,721.9 km
B*
2.0309e-3
RAAN
159.9228°
Arg perigee
83.4147°
Mean anomaly
276.7202°
Rev number
450

§ Raw data

STARLINK-372191 68843U 26094E   26144.98725499  .00315910  00000+0  20309-2 0  99942 68843  97.2845 159.9228 0000732  83.4147 276.7202 15.75309395  4503

JSON: /api/v1/satellites/68843 · /tle

For live sub-satellite position, see the globe view (requires WebGL).

§ Visibility from observer

Set your observer location to see the next 7 days of passes ≥ 10°. The values pass through the URL so the page stays shareable.

No JS? Fill the form by hand. The geolocation button needs JavaScript.